Regional Weather Roundup
Issued by NWS

Home | Current Version | Previous Version | Text Only | Print | Product List | Glossary On
Versions: 1 2 3 4 5 6 7 8 9 10 11 12 13 14 15 16 17 18 19 20 21 22 23 24 25 26 27 28 29 30 31 32 33 34 35 36 37 38 39 40 41 42 43 44 45 46 47 48 49 50
000
ASUS44 KJAN 281303
RWRMS

MISSISSIPPI HOURLY WEATHER ROUNDUP
NATIONAL WEATHER SERVICE JACKSON MS
800 AM CDT TUE JUN 28 2016

NOTE: "FAIR: INDICATES FEW OR NO CLOUDS BELOW 12,000 FEET WITH NO
SIGNIFICANT WEATHER AND/OR OBSTRUCTIONS TO VISIBILITY.

MSZ001>002-007>008-010>013-018>021-025>028-034>036-281400-
NORTHWEST MISSISSIPPI

CITY           SKY/WX    TMP DP  RH WIND       PRES   REMARKS
CLEVELAND      CLOUDY    76  76 100 NE9       30.05R
GREENWOOD      CLOUDY    77  70  79 NE9       30.04R
GREENVILLE     CLOUDY    76  72  87 NE8       30.04R
OXFORD         FAIR      72  70  94 E6        30.09R
WINONA         CLOUDY    74  73  96 NE7       30.04R
$$

MSZ003>006-009-014>017-022>024-029>033-037>039-281400-
NORTHEAST MISSISSIPPI

CITY           SKY/WX    TMP DP  RH WIND       PRES   REMARKS
ABERDEEN       FAIR      73  57  56 N3        30.06S
COLUMBUS AFB   CLOUDY    74  72  94 N2        30.04R
GOLDN TRIANGLE PTSUNNY   73  68  83 N7        30.04R
STARKVILLE     CLOUDY    73  72  94 N5        30.04R
TUPELO         CLOUDY    75  71  87 N6        30.06R
$$

MSZ040-058-281400-
CENTRAL MISSISSIPPI

CITY           SKY/WX    TMP DP  RH WIND       PRES   REMARKS
JACKSON INTL   CLOUDY    75  72  90 NE3       30.03S
JACKSON HAWKNS CLOUDY    76  72  87 E5        30.04R
MADISON        PTSUNNY   73  72  94 CALM      30.03S
MERIDIAN KEY   CLOUDY    79  72  79 CALM      30.04R
MERIDIAN NAS   CLOUDY    77  72  84 CALM      30.04S
VICKSBURG VKS  PTSUNNY   77  72  83 E5        30.02S
$$

MSZ059>079-281400-
SOUTH MISSISSIPPI

CITY           SKY/WX    TMP DP  RH WIND       PRES   REMARKS
BROOKHAVEN     FAIR     N/A N/A N/A CALM      30.04S
COLUMBIA       CLOUDY    75  73  94 N3        30.06S
HATTIESBURG    CLOUDY    77  73  87 CALM      30.03R
MCCOMB         PTSUNNY   79  71  76 N3        30.03R
NATCHEZ        NOT AVBL
PINE BELT      CLOUDY    73  72  94 N3        30.05R
$$

MSZ080>082-281400-
COASTAL MISSISSIPPI

CITY           SKY/WX    TMP DP  RH WIND       PRES   REMARKS
BILOXI         CLOUDY    78  74  87 VRB2      30.01R
PASCAGOULA     LGT RAIN  78  75  90 CALM      30.03R
GULFPORT       LGT RAIN  75  72  90 W3        30.00F
$$

LAZ007>009-015>016-023>026-281400-
NORTHEAST LOUISIANA

CITY           SKY/WX    TMP DP  RH WIND       PRES   REMARKS
BASTROP        CLOUDY    75  74  98 N3        30.05R
TALLULAH/VBURG CLOUDY    80  72  76 E5        30.02R
VIDALIA        CLOUDY    77  73  86 CALM      30.04S
$$




USA.gov is the U.S. government's official web portal to all federal, state and local government web resources and services.